Clinton, IA

7:01 AM CST on February 24, 2018 (GMT -0600)
Clinton Municipal

Weather History for KCWI - May, 2013

Change the Weather History Date:

Monday, May 20, 2013

  Actual Average Record
Temperature  
Mean Temperature 71 °F -  
Max Temperature 80 °F 75 °F 90 °F (1975)
Min Temperature 62 °F 52 °F 36 °F (1963)
Cooling Degree Days 6    
Growing Degree Days 21 (Base 50)    
Moisture  
Dew Point 58 °F    
Average Humidity 66    
Maximum Humidity 82    
Minimum Humidity 45    
Precipitation  
Precipitation 0.14 in - - ()
Sea Level Pressure  
Sea Level Pressure 29.72 in    
Wind  
Wind Speed 14 mph (South)    
Max Wind Speed 28 mph    
Max Gust Speed 44 mph    
Visibility 10 miles    
Events Thunderstorm    
Averages and records for this station are not official NWS values.
T = Trace of Precipitation, MM = Missing Value Source: NWS Daily Summary

Daily Weather History Graph

Daily Weather History Graph

Search for Another Location

Airport or City:

Trip Planner

Search our weather history database for the weather conditions in past years. The results will help you decide how hot, cold, wet, or windy it might be!

Date:

Astronomy

May. 20, 2013 Rise Set
Actual Time 5:36 AM CDT 8:19 PM CDT
Civil Twilight 5:04 AM CDT 8:52 PM CDT
Nautical Twilight 4:23 AM CDT 9:33 PM CDT
Astronomical Twilight 3:37 AM CDT 10:19 PM CDT
Moon 3:23 PM CDT (5/20) 2:36 AM CDT (5/20)
Length of Visible Light 15h 48m
Length of Day
14h 43m
Waxing Gibbous, 75% of the Moon is Illuminated
May 20
Waxing Gibbous
May 24
Full
May 31
Last Quarter
Jun 8
New
Jun 16
First Quarter

Hourly Weather History & Observations

Time (CDT) Temp. Heat Index Dew Point Humidity Pressure Visibility Wind Dir Wind Speed Gust Speed Precip Events Conditions
12:15 AM 64.4 °F - 57.2 °F 77% 29.78 in 7.0 mi WSW 18.4 mph 27.6 mph 0.03 in Thunderstorm Mostly Cloudy
12:35 AM 62.6 °F - 57.2 °F 82% 29.77 in 10.0 mi SW 9.2 mph - 0.11 in   Mostly Cloudy
12:55 AM 62.6 °F - 57.2 °F 82% 29.74 in 10.0 mi South 4.6 mph - 0.11 in   Scattered Clouds
1:15 AM 62.6 °F - 57.2 °F 82% 29.74 in 10.0 mi SSE 6.9 mph - 0.01 in   Clear
1:35 AM 62.6 °F - 57.2 °F 82% 29.73 in 10.0 mi ESE 8.1 mph - 0.01 in   Clear
1:55 AM 62.6 °F - 57.2 °F 82% 29.74 in 10.0 mi ESE 6.9 mph - 0.01 in   Clear
2:15 AM 62.6 °F - 57.2 °F 82% 29.75 in 10.0 mi SE 5.8 mph - N/A   Clear
2:35 AM 62.6 °F - 57.2 °F 82% 29.75 in 10.0 mi SSE 8.1 mph - N/A   Clear
3:15 AM 64.4 °F - 57.2 °F 77% 29.75 in 10.0 mi South 6.9 mph - N/A   Clear
3:35 AM 62.6 °F - 57.2 °F 82% 29.74 in 10.0 mi SSE 10.4 mph - N/A   Partly Cloudy
3:55 AM 64.4 °F - 57.2 °F 77% 29.70 in 10.0 mi SE 9.2 mph - N/A   Mostly Cloudy
4:15 AM 64.4 °F - 57.2 °F 77% 29.71 in 10.0 mi SE 10.4 mph - N/A   Overcast
4:35 AM 64.4 °F - 57.2 °F 77% 29.68 in 10.0 mi SE 8.1 mph - N/A   Mostly Cloudy
4:55 AM 62.6 °F - 57.2 °F 82% 29.70 in 10.0 mi SSE 11.5 mph - N/A   Mostly Cloudy
5:15 AM 64.4 °F - 57.2 °F 77% 29.72 in 10.0 mi SSE 16.1 mph - N/A   Partly Cloudy
5:35 AM 64.4 °F - 57.2 °F 77% 29.75 in 10.0 mi SSE 20.7 mph 24.2 mph N/A   Scattered Clouds
5:55 AM 64.4 °F - 57.2 °F 77% 29.72 in 10.0 mi SSE 21.9 mph 25.3 mph 0.01 in   Mostly Cloudy
6:15 AM 62.6 °F - 57.2 °F 82% 29.71 in 10.0 mi SSE 18.4 mph - 0.01 in   Mostly Cloudy
6:35 AM 62.6 °F - 57.2 °F 82% 29.72 in 10.0 mi SSW 10.4 mph - 0.01 in   Mostly Cloudy
6:55 AM 62.6 °F - 55.4 °F 77% 29.73 in 10.0 mi SSW 9.2 mph - 0.01 in   Partly Cloudy
7:15 AM 62.6 °F - 57.2 °F 82% 29.73 in 10.0 mi SW 6.9 mph - N/A   Clear
7:35 AM 64.4 °F - 57.2 °F 77% 29.73 in 10.0 mi SSW 8.1 mph - N/A   Clear
7:55 AM 64.4 °F - 57.2 °F 77% 29.73 in 10.0 mi SSW 10.4 mph - N/A   Clear
8:15 AM 66.2 °F - 57.2 °F 73% 29.74 in 10.0 mi SSW 13.8 mph - N/A   Clear
8:35 AM 68.0 °F - 59.0 °F 73% 29.74 in 10.0 mi SSW 15.0 mph - N/A   Clear
9:15 AM 69.8 °F - 57.2 °F 64% 29.74 in 10.0 mi SSW 15.0 mph - N/A   Clear
9:35 AM 71.6 °F - 59.0 °F 64% 29.74 in 10.0 mi SSW 16.1 mph - N/A   Clear
9:55 AM 71.6 °F - 60.8 °F 69% 29.74 in 10.0 mi SSW 11.5 mph - N/A   Clear
10:35 AM 71.6 °F - 59.0 °F 64% 29.75 in 10.0 mi SSW 17.3 mph 23.0 mph N/A   Clear
10:55 AM 73.4 °F - 60.8 °F 65% 29.75 in 10.0 mi South 16.1 mph - N/A   Clear
11:15 AM 73.4 °F - 60.8 °F 65% 29.76 in 10.0 mi SSW 15.0 mph 24.2 mph N/A   Clear
11:35 AM 75.2 °F - 60.8 °F 61% 29.77 in 10.0 mi SW 19.6 mph 24.2 mph N/A   Clear
11:55 AM 75.2 °F - 59.0 °F 57% 29.76 in 10.0 mi SSW 17.3 mph 25.3 mph N/A   Clear
12:15 PM 75.2 °F - 60.8 °F 61% 29.77 in 10.0 mi SSW 17.3 mph 20.7 mph N/A   Clear
12:35 PM 77.0 °F - 60.8 °F 57% 29.76 in 10.0 mi SW 19.6 mph 25.3 mph N/A   Clear
1:15 PM 78.8 °F - 60.8 °F 54% 29.76 in 10.0 mi WSW 19.6 mph 25.3 mph N/A   Clear
1:55 PM 78.8 °F - 60.8 °F 54% 29.77 in 10.0 mi SW 17.3 mph 23.0 mph N/A   Clear
2:15 PM 80.6 °F 81.8 °F 62.6 °F 54% 29.78 in 10.0 mi SSW 19.6 mph 27.6 mph N/A   Partly Cloudy
2:35 PM 78.8 °F - 60.8 °F 54% 29.77 in 10.0 mi SSW 18.4 mph 25.3 mph N/A   Partly Cloudy
2:55 PM 78.8 °F - 60.8 °F 54% 29.76 in 10.0 mi SSW 17.3 mph 26.5 mph N/A   Clear
3:15 PM 78.8 °F - 60.8 °F 54% 29.76 in 10.0 mi SSW 19.6 mph 24.2 mph N/A   Clear
3:35 PM 78.8 °F - 59.0 °F 51% 29.75 in 10.0 mi SSW 17.3 mph - N/A   Clear
3:55 PM 80.6 °F 81.1 °F 59.0 °F 48% 29.74 in 10.0 mi SW 18.4 mph 23.0 mph N/A   Clear
4:15 PM 80.6 °F 81.5 °F 60.8 °F 51% 29.73 in 10.0 mi SW 23.0 mph - N/A   Clear
4:35 PM 80.6 °F 81.1 °F 59.0 °F 48% 29.73 in 10.0 mi SSW 20.7 mph 24.2 mph N/A   Clear
4:55 PM 80.6 °F 80.8 °F 57.2 °F 45% 29.73 in 10.0 mi SW 23.0 mph 32.2 mph N/A   Clear
5:15 PM 80.6 °F 80.8 °F 57.2 °F 45% 29.73 in 10.0 mi SW 19.6 mph 31.1 mph N/A   Clear
5:35 PM 80.6 °F 81.1 °F 59.0 °F 48% 29.72 in 10.0 mi SW 19.6 mph 25.3 mph N/A   Clear
5:55 PM 80.6 °F 81.1 °F 59.0 °F 48% 29.72 in 10.0 mi SW 18.4 mph 24.2 mph N/A   Clear
6:15 PM 78.8 °F - 59.0 °F 51% 29.72 in 10.0 mi SW 19.6 mph 25.3 mph N/A   Clear
6:35 PM 78.8 °F - 57.2 °F 47% 29.71 in 10.0 mi SSW 18.4 mph 21.9 mph N/A   Clear
6:55 PM 77.0 °F - 57.2 °F 50% 29.72 in 10.0 mi SSW 18.4 mph 24.2 mph N/A   Clear
7:15 PM 75.2 °F - 57.2 °F 53% 29.72 in 10.0 mi SSW 11.5 mph - N/A   Clear
7:35 PM 75.2 °F - 57.2 °F 53% 29.71 in 10.0 mi South 10.4 mph - N/A   Clear
7:55 PM 75.2 °F - 57.2 °F 53% 29.71 in 10.0 mi SW 5.8 mph - N/A   Clear
8:15 PM 73.4 °F - 57.2 °F 57% 29.68 in 10.0 mi South 5.8 mph - N/A   Clear
8:35 PM 73.4 °F - 57.2 °F 57% 29.66 in 10.0 mi SSE 3.5 mph - N/A   Clear
9:15 PM 73.4 °F - 57.2 °F 57% 29.65 in 10.0 mi SSE 25.3 mph 34.5 mph N/A   Partly Cloudy
9:35 PM 69.8 °F - 57.2 °F 64% 29.57 in 8.0 mi SSE 27.6 mph 43.7 mph N/A   Partly Cloudy
9:55 PM 68.0 °F - 57.2 °F 68% 29.62 in 10.0 mi SSE 24.2 mph 28.8 mph N/A   Clear
10:15 PM 66.2 °F - 57.2 °F 73% 29.67 in 10.0 mi South 15.0 mph 25.3 mph N/A   Clear
10:35 PM 66.2 °F - 55.4 °F 68% 29.65 in 10.0 mi SSE 17.3 mph - N/A   Clear
10:55 PM 66.2 °F - 55.4 °F 68% 29.63 in 10.0 mi SSE 17.3 mph 21.9 mph N/A   Clear
11:15 PM 66.2 °F - 55.4 °F 68% 29.67 in 10.0 mi SSE 17.3 mph - N/A   Clear
11:35 PM 66.2 °F - 55.4 °F 68% 29.68 in 10.0 mi SSE 15.0 mph - N/A   Clear
11:55 PM 64.4 °F - 55.4 °F 73% 29.70 in 10.0 mi South 13.8 mph - N/A   Clear